Location: Napa Junction
(38.1874°N, 122.2508°W)
Time: 11:17:01
(UTC+00:00)

CENTAUR R/B - Pass Details

Date: 19 December 2025
Orbit: 630 x 1550 km, 63.4° (Epoch: 20 January)

Event Time Altitude Azimuth Distance (km) Brightness Sun altitude
Rises 02:59:27 0° 330° (NNW) 4,014 5.9 -24.3°
Reaches altitude 10° 03:03:51 10° 355° (N) 3,252 5.2 -25.2°
Enters shadow 03:06:45 14° 17° (NNE) 3,076 4.8 -25.8°
